2019-003E (43936 NORAD) Tracking and Keplerian Element Data

This shows tracking and keplerian element data for the satellite.

Feedback or suggestion? Click here.




ElementValue
Catalog43936
Name2019-003E
Epoch Orbit452
Epoch Day47.80123274
Epoch Year2019
RAAN109.2617
Inclination97.3006
Eccentricity0.0025739
Argument of Perigee146.7976
Mean Anonmoly349.9569
Mean Motion15.22871405
Decay Rate6.11E-06
L11 43936U 19003E 19047.80123274 .00000611 00000-0 28822-4 0 9990
L22 43936 97.3006 109.2617 0025739 146.7976 349.9569 15.22871405 4525

Live tracking and technical data element details for 2019-003E (NORAD 43936). 2019-003E can be tracked NOW for your location showing map with azimuth and elevation plus other details from your city location.

Track the satellite on the map from your city or location and see movement details for azimuth, elevation, latitude, longitude, range, height, and movement on the map or in text.







IsCatalogInMostPopularTable: catalog: 43936, numindb: 8
Update: records affected: 1



GetName: 43936 2019-003E

Hit Count: updated at: Thu, 21 Feb 2019 11:44:56 GMT